Theta_e
308 307 307 308 307 307 305 304 302 303 303 301 299 298 297 296 295 295 296 296 297 295 294 294 294 293 293 293 292 293 292 292
307 305 306 306 306 305 304 302 302 302 300 298 296 294 293 293 294 295 294 295 295 294 293 293 293 292 291 291 291 291 291 291
304 304 304 304 304 305 304 303 303 302 301 299 296 294 293 293 293 294 294 294 295 294 292 292 292 290 290 289 289 289 289 289
302 302 302 303 303 303 303 303 303 303 302 298 296 294 293 292 291 291 293 294 294 293 292 291 291 290 288 288 288 288 286 288
302 302 301 301 302 303 303 303 302 301 301 298 295 292 290 290 289 289 290 292 292 292 292 291 290 290 289 288 289 287 286 285
301 301 301 302 302 303 301 300 300 298 300 298 294 292 290 289 288 288 288 289 290 290 290 289 288 288 288 287 287 286 286 284
302 303 303 303 303 300 298 297 295 296 295 294 292 289 289 288 286 286 287 287 287 288 288 287 287 287 288 287 287 286 285 284
300 300 302 300 299 297 296 294 292 293 293 292 291 290 290 288 287 287 286 285 285 285 286 286 285 286 287 287 286 285 285 283
301 302 301 299 297 296 294 293 291 291 291 289 290 290 289 289 288 288 286 285 285 285 285 285 286 286 286 286 285 284 284 284
302 302 301 297 295 294 293 293 292 292 291 290 289 289 288 288 287 287 285 285 286 284 284 284 284 284 284 284 283 282 283 282
302 300 299 298 297 295 293 293 292 291 290 290 289 288 288 287 287 285 284 284 285 284 283 282 283 282 282 282 281 281 281 281
300 299 299 298 296 295 292 292 289 290 290 289 288 287 287 286 285 284 284 284 284 284 283 282 282 281 281 281 280 280 279 279
298 300 298 297 296 294 292 291 289 287 289 288 288 286 286 285 284 284 284 283 283 283 283 282 281 281 281 280 280 279 278 278
297 297 296 295 296 294 292 290 289 289 289 287 287 285 284 283 282 283 283 283 282 282 281 281 281 279 278 278 279 277 276 272
297 297 297 295 296 294 291 289 290 289 288 287 285 285 284 283 283 283 283 282 280 277 276 276 277 277 278 278 277 274 273 271
298 298 297 296 295 294 291 290 290 290 288 287 286 286 285 284 283 283 282 282 280 279 278 277 278 279 280 279 278 274 274 272
297 298 299 296 296 294 292 290 290 289 288 287 287 287 286 285 283 282 282 280 281 281 280 281 280 282 283 282 280 278 278 278
297 300 298 297 297 294 291 291 290 288 287 287 286 286 285 284 283 282 280 280 281 281 281 281 280 281 285 285 283 279 278 277
298 298 299 299 298 294 292 290 289 288 287 286 285 285 285 285 284 283 280 281 280 280 281 281 280 281 284 285 282 278 276 275
Wind_Speed
19 20 17 15 15 15 15 10 11 10 8 8 6 6 4 4 4 4 5 5 6 6 5 5 5 4 4 3 4 4 3 3
17 17 17 17 15 15 15 15 12 11 9 8 6 4 3 4 4 5 6 5 6 6 4 5 5 4 4 3 2 6 8 4
19 20 18 18 17 16 16 16 14 10 8 5 4 5 3 4 3 4 5 5 6 6 5 5 5 4 5 5 3 3 4 5
21 20 19 17 18 17 15 15 14 12 11 9 6 6 4 3 3 3 3 6 6 6 5 5 5 3 4 4 4 5 4 4
18 20 20 19 17 14 13 13 13 10 13 10 13 7 6 3 3 3 4 5 5 6 5 5 5 3 5 4 4 4 4 4
26 25 23 18 15 12 10 10 10 10 12 14 10 9 5 5 4 6 5 4 5 5 6 6 5 4 4 5 6 6 5 4
17 17 17 14 13 12 11 12 8 11 12 11 12 13 12 8 5 5 4 3 3 5 5 5 5 5 5 4 6 7 6 6
19 19 15 14 14 14 13 14 9 10 11 10 12 14 14 13 10 6 6 4 3 4 4 4 3 4 5 6 7 6 6 5
15 16 17 16 16 15 15 14 12 9 10 10 11 13 9 8 8 8 5 4 4 5 5 5 6 6 6 6 5 5 6 5
20 17 15 13 14 15 15 14 12 11 10 8 9 8 10 9 10 8 5 5 5 5 6 6 7 7 8 8 6 6 7 5
11 13 16 15 15 13 12 13 14 12 11 9 8 9 9 10 10 9 8 6 6 7 7 7 8 7 7 9 6 5 8 4
9 10 13 14 13 14 13 12 11 11 11 8 9 9 11 11 10 8 7 7 8 8 8 8 7 8 7 8 7 6 8 6
3 6 12 14 16 14 14 13 13 10 10 10 10 9 10 10 9 8 8 8 7 9 8 9 7 6 6 7 7 6 7 7
7 8 14 16 16 15 16 15 14 13 12 13 10 10 10 8 8 8 9 9 8 8 8 8 8 6 7 6 8 8 8 6
11 10 15 15 16 15 15 14 15 15 13 13 13 11 10 10 9 9 9 8 9 7 7 6 6 6 8 8 7 7 7 7
22 16 17 16 14 14 14 15 16 16 16 15 14 15 13 11 10 8 10 9 8 8 9 7 6 7 6 9 9 7 8 7
23 22 18 16 18 17 16 16 15 15 14 13 12 13 16 13 12 9 9 10 9 10 9 10 9 6 17 16 10 8 7 7
11 15 18 18 19 19 19 17 15 15 15 15 14 14 13 14 12 11 9 11 10 10 10 9 6 6 16 16 15 6 6 6
5 4 10 15 15 15 15 16 17 17 16 16 15 14 13 13 13 11 10 9 10 10 9 8 7 5 12 14 17 10 8 6
Wind_Direction
164 157 156 153 147 141 135 130 132 129 114 107 97 96 89 90 87 73 67 66 78 81 74 78 70 63 44 60 74 42 56 36
152 148 149 146 145 139 139 137 142 134 129 127 121 114 99 72 75 80 74 71 76 80 74 80 71 73 59 47 79 47 30 22
156 158 155 155 149 152 150 148 149 147 142 133 117 132 97 104 90 75 78 81 82 85 92 93 90 84 64 59 77 114 58 14
160 163 162 153 155 160 160 159 160 156 141 121 107 98 98 94 82 84 66 77 77 83 88 91 88 86 79 68 72 98 129 34
159 163 162 164 163 159 156 161 154 149 148 142 148 142 143 149 129 112 94 94 90 91 95 92 89 87 85 85 73 75 98 117
169 171 161 161 154 155 149 147 147 149 159 158 148 140 132 129 122 121 115 98 100 96 99 96 99 97 93 96 78 72 68 87
161 155 150 155 151 147 148 142 139 144 144 143 141 141 142 139 141 134 131 111 99 100 104 110 107 107 100 95 84 83 81 73
151 150 153 152 163 147 143 138 138 142 142 148 151 150 149 154 154 148 142 134 123 138 125 110 96 111 105 94 84 87 92 90
147 160 158 161 150 149 148 145 142 138 139 143 148 149 148 153 152 150 144 143 147 154 122 104 100 95 88 83 82 81 85 89
162 156 159 157 158 163 156 146 148 141 137 139 146 141 143 147 136 139 143 137 144 133 113 98 90 81 87 86 82 78 78 73
171 158 160 160 170 163 152 153 156 148 141 144 147 140 131 131 135 142 145 145 125 117 100 94 92 83 86 93 82 70 85 66
164 166 168 169 167 158 154 155 145 146 150 137 142 136 133 133 138 144 142 132 129 118 115 102 98 97 91 91 88 90 90 85
284 212 175 178 173 162 162 161 153 155 146 133 142 130 131 133 138 138 132 125 117 117 109 104 102 97 94 103 103 93 101 94
186 178 197 183 179 169 168 163 157 157 146 139 139 136 132 128 125 123 123 125 118 110 108 112 112 110 106 98 108 107 100 95
281 198 196 195 180 170 167 162 158 156 151 146 140 135 132 126 124 120 120 121 115 106 107 112 115 116 118 120 121 116 109 96
230 231 204 185 178 172 169 164 161 159 155 155 154 141 129 124 121 125 124 121 116 124 123 123 121 128 136 134 137 131 121 105
236 220 197 185 177 181 169 161 160 157 154 150 144 146 135 141 137 143 130 122 137 138 147 144 144 146 153 149 146 138 124 119
269 183 188 181 182 176 169 163 152 152 150 148 145 148 146 145 141 143 151 144 150 149 154 154 153 152 166 165 160 141 126 125
7 210 202 196 169 162 152 153 155 154 153 150 149 151 150 146 144 149 157 161 159 163 166 161 153 161 159 151 132 119 112 109